DW4273 Weather Reports


Display with metric or nautical units.
time (UTC)temp
F
wind
direction
speed
MPH
gust
MPH
rain 1hr
in
rain 24hr
in
rain mn
in
humidity
%
barometer
mb
20260507154016 53 315 6.0 12.0 0.00 0.00 0.00 54 1010.3
20260507153056 52 248 8.0 14.0 0.00 0.00 0.00 54 1010.3
20260507152036 52 270 5.0 12.0 0.00 0.00 0.00 55 1010.3
20260507151056 53 270 7.0 10.0 0.00 0.00 0.00 53 1010.5
20260507150036 52 248 5.0 13.0 0.00 0.00 0.00 62 1010.4
20260507145016 52 270 4.0 11.0 0.00 0.00 0.00 61 1010.4
20260507144016 52 248 7.0 12.0 0.00 0.00 0.00 66 1010.6
20260507143016 51 225 6.0 13.0 0.00 0.00 0.00 63 1010.3
20260507142036 50 270 4.0 10.0 0.00 0.00 0.00 66 1010.4
20260507141036 50 270 3.0 8.0 0.00 0.00 0.00 70 1010.5
20260507140016 49 248 4.0 11.0 0.00 0.00 0.00 71 1010.6
20260507135016 49 248 7.0 11.0 0.00 0.00 0.00 72 1010.7
20260507134016 48 248 7.0 10.0 0.00 0.00 0.00 72 1010.8
20260507133016 48 248 3.0 8.0 0.00 0.00 0.00 75 1010.9
20260507132016 47 225 4.0 10.0 0.00 0.00 0.00 77 1010.9
20260507131036 46 248 4.0 8.0 0.00 0.00 0.00 79 1010.9
20260507130016 46 248 5.0 9.0 0.00 0.00 0.00 79 1010.9
20260507125016 45 248 5.0 8.0 0.00 0.00 0.00 80 1010.9
20260507124016 45 248 6.0 9.0 0.00 0.00 0.00 80 1011.0
20260507123016 45 248 5.0 8.0 0.00 0.00 0.00 81 1010.9
20260507122036 45 248 4.0 9.0 0.00 0.00 0.00 83 1010.7
20260507121016 44 248 5.0 9.0 0.00 0.00 0.00 83 1010.8
20260507120016 44 248 4.0 8.0 0.00 0.00 0.00 85 1010.7
20260507115036 43 248 4.0 7.0 0.00 0.00 0.00 86 1010.7
20260507114036 43 248 4.0 8.0 0.00 0.01 0.00 88 1010.7
20260507113016 42 248 2.0 5.0 0.00 0.01 0.00 89 1010.6
20260507112036 41 0.0 6.0 0.00 0.01 0.00 89 1010.4
20260507111016 40 225 1.0 4.0 0.00 0.01 0.00 90 1010.4
20260507110036 39 0.0 2.0 0.00 0.01 0.00 91 1010.3
20260507105016 38 0.0 3.0 0.00 0.01 0.00 91 1010.2
20260507104016 37 0.0 0.0 0.00 0.01 0.00 90 1010.2
20260507103016 37 0.0 0.0 0.00 0.01 0.00 89 1010.0
20260507102036 37 0.0 0.0 0.00 0.01 0.00 89 1009.9
20260507101130 37 0.0 0.0 0.00 0.01 0.00 89 1010.1
20260507100016 37 0.0 0.0 0.00 0.01 0.00 89 1010.0
20260507095016 37 0.0 0.0 0.00 0.01 0.00 89 1010.0
20260507094016 36 0.0 0.0 0.00 0.01 0.00 88 1009.9
20260507093016 37 0.0 0.0 0.00 0.01 0.00 88 1010.0
20260507092016 37 0.0 0.0 0.00 0.01 0.00 88 1010.0
20260507091016 37 0.0 0.0 0.00 0.02 0.00 88 1010.1
20260507090016 38 0.0 0.0 0.00 0.02 0.00 89 1010.0
20260507085016 38 0.0 0.0 0.00 0.03 0.00 88 1010.1
20260507084016 38 0.0 0.0 0.00 0.03 0.00 88 1010.2
20260507083016 38 0.0 0.0 0.00 0.03 0.00 88 1010.2
20260507082016 39 0.0 0.0 0.00 0.03 0.00 88 1010.2
20260507081016 38 0.0 0.0 0.00 0.04 0.00 88 1010.2
20260507080516 38 0.0 0.0 0.00 0.04 0.00 88 1010.2
20260507075516 38 0.0 0.0 0.00 0.04 0.00 88 1010.2
20260507074538 38 0.0 0.0 0.00 0.04 0.00 87 1010.1
20260507073516 39 0.0 0.0 0.00 0.05 0.00 87 1010.3
20260507072536 39 0.0 0.0 0.00 0.06 0.00 87 1010.4
20260507071516 39 0.0 0.0 0.00 0.07 0.00 87 1010.3
20260507070516 39 0.0 0.0 0.00 0.08 0.00 87 1010.4
20260507065636 40 0.0 0.0 0.00 0.10 0.00 87 1010.3
20260507064536 40 0.0 0.0 0.00 0.11 0.00 87 1010.6
20260507063516 40 0.0 0.0 0.00 0.13 0.00 87 1010.7
20260507062516 41 0.0 0.0 0.00 0.14 0.00 87 1010.7
20260507061516 41 0.0 0.0 0.00 0.14 0.00 87 1010.8
20260507060516 41 0.0 0.0 0.00 0.14 0.00 86 1010.9
20260507055517 41 0.0 0.0 0.00 0.15 0.00 86 1011.0
20260507054516 42 0.0 0.0 0.00 0.16 0.00 86 1011.1
20260507053516 42 0.0 0.0 0.00 0.17 0.00 85 1011.1
20260507052516 42 0.0 0.0 0.00 0.18 0.00 84 1011.1
20260507051556 42 0.0 0.0 0.00 0.20 0.00 84 1011.0
20260507050537 43 0.0 0.0 0.00 0.20 0.00 84 1011.1
20260507045516 43 0.0 0.0 0.00 0.21 0.00 84 1011.2
20260507044516 43 0.0 0.0 0.00 0.21 0.00 85 1011.1
20260507043516 43 0.0 0.0 0.00 0.22 0.00 85 1011.0
20260507042516 43 0.0 0.0 0.00 0.22 0.00 85 1011.1
20260507041516 43 0.0 0.0 0.00 0.22 0.00 85 1011.2
20260507040537 43 0.0 0.0 0.00 0.23 0.00 84 1011.2
20260507035536 43 0.0 0.0 0.00 0.24 0.23 84 1011.2
20260507034536 43 0.0 0.0 0.00 0.25 0.23 83 1011.3
20260507033516 44 0.0 0.0 0.00 0.25 0.23 82 1011.4
20260507032516 44 0.0 0.0 0.00 0.26 0.23 81 1011.6
20260507031516 44 0.0 0.0 0.00 0.27 0.23 81 1011.7
20260507030516 45 0.0 0.0 0.00 0.28 0.23 81 1011.8
20260507025516 45 0.0 0.0 0.00 0.28 0.23 79 1011.6
20260507024516 46 0.0 0.0 0.00 0.29 0.23 79 1011.6
20260507023516 46 0.0 0.0 0.00 0.29 0.23 78 1011.5
20260507022516 46 0.0 0.0 0.00 0.30 0.23 76 1011.1
20260507021536 46 0.0 0.0 0.00 0.31 0.23 75 1011.0
20260507020516 47 0.0 0.0 0.00 0.33 0.23 74 1011.0
20260507015516 47 0.0 0.0 0.00 0.34 0.23 73 1011.1
20260507014516 47 0.0 0.0 0.00 0.35 0.23 72 1011.1
20260507013516 48 0.0 0.0 0.00 0.37 0.23 71 1011.0
20260507012536 48 0.0 0.0 0.00 0.40 0.23 68 1010.8
20260507011516 48 0.0 0.0 0.00 0.43 0.23 67 1010.7
20260507010516 48 0.0 0.0 0.00 0.47 0.23 66 1010.5
20260507005536 49 0.0 0.0 0.00 0.50 0.23 66 1010.5
20260507004516 49 0.0 0.0 0.00 0.54 0.23 66 1010.7
20260507003516 49 0.0 2.0 0.00 0.60 0.23 66 1010.5
20260507002516 49 0.0 0.0 0.00 0.62 0.23 65 1010.4
20260507001536 49 0.0 0.0 0.00 0.64 0.23 65 1010.5
20260507000516 49 0.0 1.0 0.00 0.66 0.23 64 1010.4
20260506235536 50 0.0 3.0 0.00 0.68 0.23 63 1010.4
20260506234516 50 0.0 3.0 0.00 0.69 0.23 61 1010.3
20260506233516 50 338 1.0 5.0 0.00 0.69 0.23 59 1010.6
20260506232516 50 338 2.0 8.0 0.00 0.69 0.23 59 1010.6
20260506231516 50 0.0 3.0 0.00 0.70 0.23 62 1010.5
20260506230536 50 315 2.0 7.0 0.00 0.71 0.23 61 1010.4
20260506225516 51 338 2.0 8.0 0.00 0.72 0.23 63 1010.2
20260506224516 51 0 2.0 7.0 0.00 0.74 0.23 63 1010.3
20260506223516 51 0 2.0 7.0 0.00 0.77 0.23 62 1010.3
20260506222516 52 338 2.0 7.0 0.00 0.81 0.23 61 1010.2
20260506221516 53 315 2.0 7.0 0.00 0.86 0.23 61 1009.9
20260506220516 53 0 1.0 3.0 0.00 0.87 0.23 61 1009.5
20260506215536 53 0 1.0 4.0 0.00 0.87 0.23 62 1009.7
20260506214516 53 0 2.0 8.0 0.00 0.87 0.23 63 1009.7
20260506213516 53 338 1.0 4.0 0.00 0.87 0.23 62 1009.5
20260506212556 53 23 2.0 6.0 0.00 0.87 0.23 62 1009.2
20260506211536 53 45 1.0 5.0 0.00 0.87 0.23 63 1009.2
20260506210516 53 338 1.0 6.0 0.00 0.87 0.23 60 1009.1
20260506205536 53 0 1.0 4.0 0.00 0.87 0.23 61 1009.1
20260506204516 53 315 1.0 4.0 0.00 0.87 0.23 60 1009.3
20260506203536 53 315 1.0 4.0 0.00 0.89 0.23 59 1009.3
20260506202516 53 0.0 2.0 0.00 0.90 0.23 62 1009.4
20260506201536 53 315 1.0 4.0 0.00 0.90 0.23 58 1009.2
20260506200516 53 315 1.0 8.0 0.00 0.91 0.23 60 1009.3
20260506195536 53 23 2.0 7.0 0.00 0.93 0.23 59 1009.2
20260506194516 53 0 2.0 8.0 0.00 0.93 0.23 58 1009.5
20260506193516 53 293 2.0 7.0 0.00 0.93 0.23 59 1009.5
20260506192516 53 23 2.0 7.0 0.00 0.93 0.23 60 1009.1
20260506191536 53 315 3.0 9.0 0.00 0.94 0.23 57 1009.3
20260506190516 53 338 4.0 8.0 0.00 0.94 0.23 57 1009.5
20260506185556 54 0 4.0 9.0 0.00 0.94 0.23 57 1009.6
20260506184536 54 293 4.0 13.0 0.00 0.94 0.23 59 1009.4
20260506183516 54 23 5.0 15.0 0.00 0.94 0.23 57 1009.5
20260506182516 54 315 3.0 9.0 0.00 0.94 0.23 59 1009.4
20260506181516 54 23 4.0 10.0 0.00 0.94 0.23 58 1009.3
20260506180516 54 338 4.0 11.0 0.00 0.94 0.23 57 1009.4
20260506175536 54 315 5.0 12.0 0.00 0.94 0.23 62 1009.6
20260506174516 54 0 5.0 9.0 0.00 0.94 0.23 60 1009.2
20260506173516 54 0 4.0 8.0 0.00 0.94 0.23 60 1009.3
20260506172516 54 0 4.0 11.0 0.00 0.94 0.23 60 1009.2
20260506171516 54 0 6.0 12.0 0.00 0.94 0.23 59 1009.1
20260506170516 54 338 4.0 9.0 0.00 0.94 0.23 62 1009.0
20260506165516 53 338 4.0 10.0 0.00 0.94 0.23 63 1009.3
20260506164536 53 315 4.0 10.0 0.00 0.94 0.23 63 1009.4
20260506163516 53 338 4.0 9.0 0.00 0.94 0.23 69 1009.3
20260506162516 52 270 3.0 8.0 0.00 0.94 0.23 70 1009.3
20260506160557 52 315 5.0 10.0 0.00 0.94 0.23 70 1008.9
20260506155516 52 338 3.0 8.0 0.00 0.94 0.23 72 1008.8